Location: Newark
(11.0000°N, 122.6717°E)
Time: 18:22:27
(UTC+00:00)

STARLINK 1034 - Pass Details

Date: 17 December 2019
Orbit: 465 x 467 km, 53.0° (Epoch: 22 January)

Event Time Altitude Azimuth Distance (km) Brightness Sun altitude
Rises 10:07:00 0° 238° (WSW) 2,552 9.1 -9.3°
Reaches altitude 10° 10:09:26 10° 253° (WSW) 1,690 7.7 -9.8°
Maximum altitude 10:12:34 24° 308° (NW) 1,083 5.5 -10.5°
Drops below altitude 10° 10:15:48 10° 3° (N) 1,746 5.9 -11.3°
Enters shadow 10:17:29 - 14° (NNE) 2,331 6.5 -11.6°
